Home > Weather > Aurich > Past weeks

Flag for Germany Past Weather in Aurich, Lower Saxony, Germany — Yesterday and Last 2 Weeks

Now
57 °F

Passing clouds.


Feels Like: 57 °F
Forecast: 52 / 62 °F
Wind: 5 mph from West

Location: Wittmundhaven

Current Time: Jun 28, 2016 at 12:18:06 AM

Latest Report: Jun 27, 2016 at 11:20 PM


Visibility: N/A

Pressure: 30.04 "Hg

Humidity: 88%

Dew Point: 54 °F

Location of AurichLocation

Past Weather in Aurich — Graph

°F

Aurich Temperature Yesterday

Maximum temperature yesterday: 63 °F (at 11:20 AM)
Minimum temperature yesterday: 52 °F (at 2:20 AM)
Average temperature yesterday: 58 °F

High & Low Weather Summary for the Past Weeks

 TemperatureHumidityPressure
High79 °F (Jun 23, 11:20 AM)100% (Jun 13, 1:20 AM)30.21 "Hg (Jun 13, 1:20 AM)
Low52 °F (Jun 16, 2:20 AM)53% (Jun 16, 2:20 PM)29.45 "Hg (Jun 14, 5:20 AM)
Average61 °F85%29.86 "Hg
* Reported Jun 12 10:20 PM — Jun 27 10:20 PM, Aurich, Weather by CustomWeather, © 2016

Note: Actual official high and low records may vary slightly from our data, if they occured in-between our weather recording intervals... More about our weather records

Advertising

Aurich Weather History for the Previous 24 Hours

Scroll right to see more
 ConditionsComfort  
Time TempWeatherWind HumidityBarometerVisibility
10:20 PM
Mon, Jun 27
57 °FPartly sunny.6 mph88%30.01 "HgN/A
9:20 PM59 °FPartly sunny.7 mph88%30.01 "HgN/A
8:20 PM59 °FSprinkles. Partly sunny.10 mph88%30.01 "HgN/A
7:20 PM61 °FPassing clouds.13 mph83%29.98 "HgN/A
6:20 PM63 °FPartly sunny.12 mph83%29.98 "HgN/A
5:51 PM61 °FPartly sunny.9 mph94%29.98 "HgN/A
5:20 PM61 °FDrizzle. Fog.8 mph94%29.98 "Hg2 mi
4:20 PM61 °FDrizzle. Fog.12 mph94%29.95 "Hg1 mi
3:20 PM61 °FDrizzle. Fog.14 mph94%29.95 "Hg2 mi
2:48 PM59 °FDrizzle. Fog.10 mph94%29.95 "Hg2 mi
2:20 PM63 °FDrizzle. Fog.18 mph77%29.95 "Hg3 mi
1:20 PM63 °FOvercast.13 mph77%29.95 "HgN/A
12:20 PM63 °FPartly sunny.13 mph77%29.95 "HgN/A
11:20 AM63 °FPartly sunny.10 mph77%29.95 "Hg6 mi
10:20 AM61 °FPartly sunny.12 mph83%29.95 "Hg5 mi
9:20 AM59 °FPartly sunny.14 mph88%29.95 "Hg5 mi
8:20 AM57 °FLight rain. Partly sunny.10 mph88%29.95 "Hg4 mi
7:48 AM57 °FPartly sunny.9 mph88%29.95 "Hg6 mi
7:20 AM55 °FScattered clouds.8 mph94%29.95 "HgN/A
6:20 AM54 °FPassing clouds.7 mph94%29.98 "Hg5 mi
5:20 AM52 °FPassing clouds.7 mph94%29.98 "Hg5 mi
4:20 AM52 °FCool.7 mph94%29.98 "Hg4 mi
3:20 AM52 °FCool.7 mph94%29.98 "Hg4 mi
2:20 AM52 °FCool.6 mph94%29.98 "Hg4 mi
1:20 AM54 °FCool.7 mph94%29.98 "Hg4 mi
12:20 AM55 °FCool.6 mph88%30.01 "Hg4 mi
Weather by CustomWeather, © 2016

See weather overviewHow to use our weather pages